SCP
0 0 0 0 0 0 0 0 0 0 0 0 0 0 0 0 0 0 0 0 0 0 0 0 0 0 0 0 0 0 0 0 0 0 0 0 0 0 0 0 0 0 0
0 0 0 0 0 0 0 0 0 0 0 0 0 0 0 0 0 0 0 0 0 0 0 0 0 0 0 0 0 0 0 0 0 0 0 0 0 0 0 0 0 0 0
0 0 0 0 0 0 0 0 0 0 0 0 0 0 0 0 0 0 0 0 0 0 0 0 0 0 0 0 0 0 0 0 0 0 0 0 0 0 0 0 0 0 0
0 0 0 0 0 0 0 0 0 0 0 0 0 0 0 0 0 0 0 0 0 0 0 0 0 0 0 0 0 0 0 0 0 0 0 0 0 0 0 0 0 0 0
0 0 0 0 0 0 0 0 0 0 0 0 0 0 0 0 0 0 0 0 0 0 0 0 0 0 0 0 0 0 0 0 0 0 0 0 0 0 0 0 0 0 0
0 0 0 0 0 0 0 0 0 0 0 0 0 0 0 0 0 0 0 0 0 0 0 0 0 0 0 0 0 0 0 0 0 0 0 0 0 0 0 0 0 0 0
0 0 0 0 0 0 0 0 0 0 0 0 0 0 0 0 0 0 0 0 0 0 0 0 0 0 0 0 0 0 0 0 0 0 0 0 0 0 0 0 0 0 0
0 0 0 0 0 0 0 0 0 0 0 0 0 0 0 0 0 0 0 0 0 0 0 0 0 0 0 0 0 0 0 0 0 0 0 0 0 0 0 0 0 0 0
0 0 0 0 0 0 0 0 0 0 0 0 0 0 0 0 0 0 0 0 0 0 0 0 0 0 0 0 0 0 0 0 0 0 0 0 0 0 0 0 0 0 0
0 0 0 0 0 0 0 0 0 0 0 0 0 0 0 0 0 0 0 0 0 0 0 0 0 0 0 0 0 0 0 0 0 0 0 0 0 0 0 0 0 0 0
0 0 0 0 0 0 0 0 0 0 0 0 0 0 0 0 0 0 0 0 0 0 0 0 0 0 0 0 0 0 0 0 0 0 0 0 0 0 0 0 0 0 0
0 0 0 0 0 0 0 0 0 0 0 0 0 0 0 0 0 0 0 0 0 0 0 0 0 0 0 0 0 0 0 0 0 0 0 0 0 0 0 0 0 0 0
0 0 0 0 0 0 0 0 0 0 0 0 0 0 0 0 0 0 0 0 0 0 0 0 0 0 0 0 0 0 0 0 0 0 0 0 0 0 0 0 0 0 0
0 0 0 0 0 0 0 0 0 0 0 0 0 0 0 0 0 0 0 0 0 0 0 0 0 0 0 0 0 0 0 0 0 0 0 0 0 0 0 0 0 0 0
0 0 0 0 0 0 0 0 0 0 0 0 0 0 0 0 0 0 0 0 0 0 0 0 0 0 0 0 0 0 0 0 0 0 0 0 0 0 0 0 0 0 0
0 0 0 0 0 0 0 0 0 0 0 0 0 0 0 0 0 0 0 0 0 0 0 0 0 0 0 0 0 0 0 0 0 0 0 0 0 0 0 0 0 0 0
0 0 0 0 0 0 0 0 0 0 0 0 0 0 0 0 0 0 0 0 0 0 0 0 0 0 0 0 0 0 0 0 0 0 0 0 0 0 0 0 0 0 0
0 0 0 0 0 0 0 0 0 0 0 0 0 0 0 0 0 0 0 0 0 0 0 0 0 0 0 0 0 0 0 0 0 0 0 0 0 0 0 0 0 0 0
0 0 0 0 0 0 0 0 0 0 0 0 0 0 0 0 0 0 0 0 0 0 0 0 0 0 0 0 0 0 0 0 0 0 0 0 0 0 0 0 0 0 0
0 0 0 0 0 0 0 0 0 0 0 0 0 0 0 0 0 0 0 0 0 0 0 0 0 0 0 0 0 0 0 0 0 0 0 0 0 0 0 0 0 0 0
0 0 0 0 0 0 0 0 0 0 0 0 0 0 0 0 0 0 0 0 0 0 0 0 0 0 0 0 0 0 0 0 0 0 0 0 0 0 0 0 0 0 0
0 0 0 0 0 0 0 0 0 0 0 0 0 0 0 0 0 0 0 0 0 0 0 0 0 0 0 0 0 0 0 0 0 0 0 0 0 0 0 0 0 0 0
0 0 0 0 0 0 0 0 0 0 0 0 0 0 0 0 0 0 0 0 0 0 0 0 0 0 0 0 0 0 0 0 0 0 0 0 0 0 0 0 0 0 0
0 0 0 0 0 0 0 0 0 0 0 0 0 0 0 0 0 0 0 0 0 0 0 0 0 0 0 0 0 0 0 0 0 0 0 0 0 0 0 0 0 0 0
0 0 0 0 0 0 0 0 0 0 0 0 0 0 0 0 0 0 0 0 0 0 0 0 0 0 0 0 0 0 0 0 0 0 0 0 0 0 0 0 0 0 0
0 0 0 0 0 0 0 0 0 0 0 0 0 0 0 0 0 0 0 0 0 0 0 0 0 0 0 0 0 0 0 0 0 0 0 0 0 0 0 0 0 0 0
Wind_Speed
8 8 9 8 8 8 7 8 7 6 6 6 5 5 4 3 3 2 1 1 2 2 2 2 3 4 3 3 3 3 4 4 10 12 8 7 8 9 10 10 10 10 11
8 8 9 8 8 8 8 7 7 7 6 5 5 4 4 3 2 1 0 1 1 2 2 3 4 4 4 4 3 4 4 5 7 15 14 9 8 9 10 11 12 12 9
9 9 9 9 8 8 8 7 7 7 6 5 5 4 3 3 2 1 1 1 2 3 3 3 4 4 5 4 4 4 4 6 5 10 14 11 8 8 10 11 11 9 12
10 10 9 9 9 8 8 8 7 7 6 6 5 4 3 3 2 2 1 2 3 3 3 4 4 4 5 5 5 5 6 7 7 9 12 12 10 9 9 10 11 7 9
12 11 10 9 8 8 8 8 7 7 6 6 5 4 3 3 3 3 2 3 3 4 4 4 5 5 8 8 7 6 6 6 7 9 11 12 11 11 10 10 13 11 8
12 11 10 10 9 9 9 8 8 7 6 5 5 5 5 4 6 7 4 3 4 5 6 5 5 5 7 13 15 15 13 10 8 9 11 13 15 13 12 12 13 14 13
11 11 11 11 11 10 10 9 8 8 6 6 6 5 5 6 9 9 8 5 5 5 5 5 5 5 6 7 11 15 14 17 19 15 14 15 16 15 16 17 15 15 15
12 11 11 11 11 10 10 10 8 6 7 7 7 6 5 7 10 10 9 5 5 6 6 6 7 6 7 9 9 9 10 11 15 13 13 15 15 16 16 17 18 16 14
13 13 12 12 12 11 11 10 8 7 7 7 6 6 6 7 10 10 9 3 5 6 6 6 7 7 12 15 10 9 11 11 16 20 23 23 27 27 23 14 12 12 13
14 12 11 11 12 13 12 9 6 7 7 7 6 6 7 6 10 12 11 4 5 5 5 6 8 9 13 15 9 8 10 11 11 12 15 18 17 18 22 14 11 11 12
10 9 10 10 11 10 9 7 7 6 6 6 6 5 6 7 10 13 13 6 6 5 5 5 6 12 14 15 13 7 12 13 7 8 10 11 11 10 11 11 11 11 12
9 10 10 10 8 7 8 7 7 7 7 6 5 5 5 6 9 12 15 13 10 6 6 5 6 13 15 15 11 12 16 12 5 6 7 8 9 9 10 12 14 13 13
10 9 8 8 7 7 8 9 7 7 6 6 6 6 6 6 8 14 14 15 15 8 6 10 12 14 13 9 11 14 9 4 4 6 8 9 9 10 11 11 12 12 13
10 9 8 8 7 6 6 7 7 8 8 7 7 7 6 5 5 5 5 6 9 9 6 7 12 13 10 8 6 6 4 4 5 6 8 9 9 9 9 9 10 10 11
8 8 7 7 7 7 7 7 8 7 8 8 7 6 6 6 8 11 7 6 5 6 4 2 2 3 3 3 3 4 4 4 5 5 6 8 9 9 10 9 9 10 10
8 7 7 6 6 6 6 5 12 11 14 15 13 9 7 10 11 14 15 15 15 14 7 4 4 4 5 4 4 4 4 4 5 5 6 7 8 9 10 10 9 9 10
7 7 6 6 6 6 6 6 5 7 12 14 15 14 13 12 14 14 15 16 16 14 8 5 5 5 5 4 4 4 4 4 4 5 6 7 8 9 10 10 10 10 10
5 5 5 5 5 5 5 4 4 4 4 4 7 12 14 14 14 15 15 13 9 8 5 5 5 5 5 4 4 4 5 5 4 5 6 6 7 8 9 10 10 11 11
4 3 3 3 3 3 3 3 3 3 3 2 2 4 8 10 12 14 13 7 6 6 5 5 5 5 5 5 4 4 4 5 5 5 6 6 6 7 9 9 10 12 12
3 5 4 4 3 3 3 2 2 3 3 3 3 3 2 2 3 5 5 5 6 6 5 5 5 5 5 5 4 4 4 5 5 5 5 6 6 7 9 10 10 10 10
4 4 5 3 3 3 2 2 2 3 3 3 3 5 8 5 5 6 6 6 6 6 6 5 5 5 5 5 4 5 6 6 5 5 5 5 6 6 7 8 9 9 9
3 3 3 3 2 2 2 2 2 3 3 4 3 5 11 6 4 5 6 6 6 5 5 5 5 5 5 5 5 5 6 6 6 5 5 5 5 6 7 8 8 9 9
3 3 3 2 2 2 2 2 2 3 4 4 4 4 4 5 5 6 6 6 5 5 4 5 5 6 5 5 5 6 7 7 6 5 5 6 6 6 7 8 9 9 9
3 3 3 2 2 2 2 3 3 4 4 4 4 5 5 5 6 7 7 6 5 5 5 5 6 8 9 7 5 6 7 7 6 6 7 7 8 7 7 7 8 8 8
2 2 2 2 2 2 3 3 3 4 4 5 5 5 5 5 6 6 6 6 6 7 7 7 6 7 10 11 9 8 10 12 10 7 6 7 9 9 8 8 7 7 7
2 2 2 2 2 3 3 4 4 4 5 5 5 5 5 6 6 6 6 5 6 6 7 6 8 9 10 9 10 12 13 14 14 12 8 7 8 8 8 6 7 6 6
Wind_Direction
144 138 134 131 130 126 125 127 127 123 123 122 122 119 115 105 89 81 62 34 8 339 334 334 315 308 306 307 303 294 285 283 287 292 295 306 312 311 310 305 304 300 301
147 141 139 136 134 133 134 133 131 130 130 132 131 132 133 126 116 114 83 19 329 312 310 311 304 309 308 302 300 298 295 289 287 295 301 308 309 308 305 306 307 305 304
149 148 146 147 146 146 143 140 138 139 140 139 141 147 149 148 155 168 174 274 284 283 286 288 292 298 295 296 300 296 295 297 292 294 298 305 306 309 308 303 299 299 304
158 158 159 160 158 154 148 145 147 149 150 152 154 157 160 167 186 191 212 257 271 274 275 275 278 280 287 296 296 289 294 297 297 294 295 302 305 305 303 307 306 300 301
166 168 168 161 156 151 149 150 150 151 153 154 157 165 174 188 198 198 227 252 266 271 272 271 273 275 283 289 290 288 291 290 293 294 295 299 302 308 307 306 302 303 294
172 173 165 160 158 158 157 154 155 156 155 158 174 183 196 208 220 229 239 253 267 272 277 278 279 275 282 294 298 299 297 295 294 290 292 294 298 301 301 300 300 299 299
172 170 167 164 165 164 160 160 167 168 166 177 189 194 208 222 229 236 245 253 261 267 273 278 282 283 287 289 292 297 299 295 292 290 289 290 294 297 296 294 290 288 290
173 173 170 167 168 164 164 173 174 170 179 189 198 200 208 226 234 240 248 250 255 259 261 265 273 280 282 288 285 287 289 290 290 289 285 288 290 291 287 288 290 290 288
180 180 175 171 169 169 177 181 177 175 187 195 195 197 208 227 236 241 244 235 250 259 260 260 264 269 280 291 295 292 294 294 298 298 298 299 300 302 302 300 297 295 294
186 181 173 171 174 180 185 180 173 178 188 191 201 201 208 220 236 240 239 224 241 253 256 260 261 266 279 291 293 291 296 300 305 308 307 306 305 302 303 299 298 297 298
170 162 166 174 179 179 175 171 165 173 178 192 204 210 215 222 237 240 238 221 226 242 251 256 262 278 286 294 301 295 294 308 320 315 307 304 304 303 304 304 303 301 299
153 161 170 173 171 166 166 168 167 171 181 196 207 224 227 225 229 240 241 239 236 229 243 256 266 281 290 298 304 301 308 320 318 306 303 303 305 306 307 307 304 299 292
156 166 166 161 161 162 167 171 170 176 188 199 204 222 227 217 229 236 241 243 247 240 241 258 269 281 291 298 299 304 317 313 298 299 300 301 303 304 306 304 302 298 292
162 163 158 161 164 163 171 175 181 188 196 202 206 217 221 213 212 220 228 241 250 256 258 262 273 279 282 285 288 298 293 282 285 290 295 300 304 305 303 305 307 310 306
159 159 162 169 171 177 189 197 196 202 199 200 207 205 206 220 224 224 219 218 221 234 239 226 233 248 254 261 265 265 269 279 283 286 295 301 304 306 307 308 306 307 305
162 169 172 173 176 180 186 212 231 222 228 233 228 222 226 236 243 240 242 244 247 247 239 219 228 231 239 247 257 269 271 274 282 292 295 296 302 306 308 309 308 307 307
172 173 171 173 176 181 184 192 213 233 235 239 241 243 242 246 250 251 253 255 256 254 242 226 227 229 233 238 245 254 267 276 285 289 292 295 300 303 305 308 311 311 309
156 158 161 167 169 175 183 191 193 198 219 244 250 253 255 256 257 259 259 260 256 248 227 226 227 224 226 232 240 250 264 276 280 283 287 291 295 299 303 306 309 311 311
142 140 139 138 143 152 160 171 187 203 218 233 246 270 269 273 272 267 263 250 242 239 231 229 225 224 225 228 234 242 253 265 272 278 281 285 291 297 300 304 307 308 310
118 123 123 128 132 141 153 172 193 209 225 233 238 242 247 265 261 267 260 253 245 241 236 233 228 224 225 228 231 237 250 258 265 269 275 281 287 292 297 302 306 310 311
116 120 121 123 140 155 167 187 202 216 229 238 242 251 256 241 244 246 246 247 246 243 239 236 231 228 227 227 227 233 242 253 256 262 270 277 284 290 294 297 302 306 308
113 124 133 141 146 162 175 189 207 228 241 252 257 271 281 278 262 257 256 254 249 243 235 232 235 233 227 224 223 228 238 249 252 255 265 274 281 286 290 295 301 308 311
116 127 135 144 155 172 188 207 222 234 245 252 259 259 261 261 264 265 264 262 258 250 237 230 238 244 239 231 224 222 233 243 243 243 259 274 279 281 285 291 298 306 310
123 135 146 159 175 193 212 227 235 241 247 252 256 258 259 259 260 263 264 265 261 255 244 236 239 245 245 242 237 233 237 245 245 244 244 256 268 275 278 282 290 296 302
138 152 168 185 200 215 228 238 243 247 250 253 255 258 261 262 263 263 262 260 260 257 252 245 244 246 248 247 245 244 250 256 255 244 241 246 256 263 268 274 281 292 298
172 189 203 211 221 229 235 243 248 251 253 256 257 258 261 264 265 265 264 261 261 260 259 253 248 248 250 251 251 253 254 255 253 245 234 240 248 256 261 265 274 281 291